STARLINK-32235, 60739

Orbit data source: Space-Track

STARLINK-32235, 60739 is a payload satellite owned by SpaceX/Seattle (US) in LEO that was launched on Wed, 28 Aug 2024 UTC via an FALCON 9 launch vehicle from the Air Force Eastern Test Range (AFETR). Payload-class satellites include a variety of spacecraft equipped with specific instruments for various scientific and technological missions. These include communications satellites like Starlink; space stations such as the ISS; scientific satellites like the Hubble; Earth observation satellites from companies like Planet Labs, Umbra, and HawkEye 360; GPS; miniature CubeSats for education and research; and military/defense satellites.

Loading next visibility...
Identifier
60739, 2024-152V
Orbit
LEO
Country
Flag of USUS
Related business
Manufacturer
SpaceX/Seattle
Mission
Operational Commercial Communications
Bus & Motor
STARLINK V2M, Unknown motor
Mass
730 kg wet, ~700 kg dry
Launch date (UTC)
2024-08-28 (1 year ago)
Launch vehicle
FALCON 9
Launch site
Air Force Eastern Test Range (AFETR)
Object type
Payload
Rocket body
Debris
Shape & HBR
Box + 2 Pan, 17.7 m
Radar Cross Section
33.884 m², Large (>1 m²)

Expand to show TLE details & history
Last TLE update: 9 hours ago

TLE from 9 hours ago
0 STARLINK-32235
1 60739U 24152V   25286.83155406 -.00000281  00000-0  26322-5 0  9996
2 60739  53.1613 230.7520 0001001  99.1430 260.9684 15.30191349 64318
Epoch: 2025-10-13T19:57Z
TLE epoch observation values (Epoch: 2025-10-13T19:57:26.270Z)
Latitude
-0.00004°
Longitude
-91.23618°
Altitude
476.249 km
Speed
7.629 km/s
True Right ascension
15h 23m 00s
True Declination
0° 00' 00"
Sunlit
Object was in daylight at epoch
Visualization orbit readout
Latitude
Unknown
Longitude
Unknown
Altitude
Unknown
Speed
Unknown
Apparent Right ascension
Unknown
Apparent Declination
Unknown
Sunlit
N/A
Visualization observer readout
Local Sidereal Time
23:05:41
Azimuth
Unknown
Elevation
Unknown
Doppler factor
Unknown
Orbital elements
Apogee altitude
476.183 km
Perigee altitude
474.811 km
Semi-major axis
6,853.634 km
Eccentricity
0.0001
Inclination
53.1613°
RAAN
230.752°
Arg. of periapsis
99.143°
True anomaly
260.95707°
Mean anomaly
260.9684°
Eccentric anomaly
260.96274°
Mean motion
3.82527 °/min
Orbital period
94.11 mins
BSTAR
0.0000026322
Loading maneuver chart data...
Computing Atmospheric mass density...
Loading historical data...
Loading historical data...
Loading historical data...
Loading historical data...
Loading historical data...
Loading historical data...
Loading historical data...

Documentation

Showing up to 5 results
|